Tracking 19192 objects as of 18-Jun-2018
HD Live streaming from Space Station
objects crossing your sky now

FENGYUN 1C DEB

Track FENGYUN 1C DEB now!
10-day predictions


NORAD ID: 30720
Int'l Code: 1999-025ASE
Perigee: 805.4 km
Apogee: 854.1 km
Inclination: 98.9 °
Period: 101.4 minutes
Semi major axis: 7200 km
RCS: 0.0072 m2 (small)
Launch date: May 10, 1999
Source: People's Republic of China (PRC)
Launch site: Taiyaun Space Center, China (TSC)

Note: This is SATELLITE DEBRIS
aabbcc
Your satellite tracking list
Your tracking list is empty




NASA's NSSDC Master Catalog

Two Line Element Set (TLE):
1 30720U 99025ASE 18168.77775132  .00000231  00000-0  12742-3 0  9995
2 30720  98.8627 265.4654 0033798 278.9972 234.6329 14.20809740586429
Source of the keplerian elements: AFSPC